[[{"header":{"parameterUnit":"m.s-1","parameterCategory":2,"la1":30.2992,"la2":30.254,"lo1":-89.0895,"lo2":-89.0443,"dy":0.0025,"dx":0.0025,"nx":19,"ny":19,"refTime":"2026-04-19T09:00:00:Z","depth":"0","parameterNumber":2,"parameterNumberName":"U-component_of_CURRENTS"},"data":[0,0,0,-0.1737,-0.1739,-0.1797,-0.1797,-0.1785,-0.1784,0,0,0,0,0,0,0,0,0,0,0,-0.1703,-0.1704,-0.1737,-0.1739,-0.1797,-0.1797,-0.1785,-0.1784,0,0,0,0,0,0,0,0,0,0,0,-0.1703,-0.1704,-0.1705,-0.1739,-0.1797,-0.1797,-0.1785,-0.1758,0,0,0,0,0,0,0,0,0,0,-0.171,-0.1706,-0.1704,-0.1705,-0.174,-0.1797,-0.1797,-0.1757,-0.176,-0.1739,0,-0.1755,0,-0.1782,-0.1783,-0.1783,0,0,0,-0.1721,-0.1705,-0.1719,-0.1705,-0.1741,-0.1797,-0.1766,-0.1759,-0.1762,-0.1741,-0.1755,-0.1756,-0.1781,-0.1783,-0.1783,-0.1737,-0.1737,0,0,-0.1718,-0.1712,-0.1717,-0.172,-0.1763,-0.1764,-0.1768,-0.1761,-0.1766,-0.1755,-0.1756,-0.1781,-0.1783,-0.1783,-0.1737,-0.1737,0,0,0,-0.1721,-0.171,-0.1726,-0.172,-0.1744,-0.1766,-0.1771,-0.1766,-0.1771,-0.1756,-0.1781,-0.1783,-0.1783,-0.1738,-0.1737,-0.1675,0,0,0,-0.1718,-0.1713,-0.1724,-0.1721,-0.1745,-0.1771,-0.1775,-0.1771,-0.1772,-0.1781,-0.1783,-0.1783,-0.1738,-0.1737,-0.1678,-0.167,0,0,0,-0.17,-0.1712,-0.172,-0.1721,-0.1756,-0.1772,-0.1777,-0.1772,-0.1787,-0.1783,-0.1783,-0.1738,-0.1738,-0.168,-0.1673,-0.1682,0,0,0,-0.1688,-0.1708,-0.172,-0.1768,-0.1756,-0.1745,-0.1777,-0.1791,-0.1788,-0.1783,-0.1738,-0.1737,-0.1681,-0.1675,-0.1683,-0.1817,-0.182,0,0,-0.1704,-0.171,-0.1743,-0.1757,-0.1732,-0.1735,-0.169,-0.1722,-0.1762,-0.1732,-0.1732,-0.1677,-0.1674,-0.1682,-0.1765,-0.1771,0,0,0,-0.1745,-0.1719,-0.1731,-0.1728,-0.1741,-0.1671,-0.1675,-0.1691,-0.1701,-0.1762,-0.1676,-0.1677,-0.1684,-0.1767,-0.1771,-0.1943,-0.1733,-0.1733,-0.1733,-0.1695,-0.1707,-0.1692,-0.1653,-0.1636,-0.1615,-0.1605,-0.1612,-0.1635,-0.1644,-0.1624,-0.1589,-0.1675,-0.168,-0.1854,-0.1613,-0.1613,-0.1613,-0.1613,-0.1617,-0.1578,-0.1591,-0.1561,-0.1528,-0.1469,-0.148,-0.1514,-0.1537,-0.1563,-0.1573,-0.1696,-0.1681,-0.1865,-0.1609,-0.1609,-0.161,-0.161,-0.161,-0.1489,-0.1464,-0.1483,-0.1433,-0.1406,-0.1391,-0.1406,-0.1433,-0.1495,-0.1509,-0.1636,-0.164,-0.1808,-0.1517,-0.1517,-0.1517,-0.1517,-0.1517,-0.1517,-0.1343,-0.1353,-0.1319,-0.1292,-0.1303,-0.1302,-0.1365,-0.1423,-0.1534,-0.16,-0.1602,-0.183,-0.1561,-0.1571,-0.1517,-0.1517,-0.1517,-0.1517,-0.1517,-0.1135,-0.1176,-0.1142,-0.1156,-0.1195,-0.1259,-0.133,-0.1532,-0.1596,-0.169,-0.1943,-0.1664,-0.1711,-0.171,-0.1725,-0.1713,-0.1713,-0.1713,-0.1713,-0.1013,-0.1021,-0.1049,-0.1096,-0.1124,-0.1249,-0.1485,-0.1725,-0.1985,-0.2137,-0.2117,-0.2182,-0.2166,-0.2242,-0.2229,-0.2256,-0.2379,-0.238,-0.2381,-0.0906,-0.097,-0.0982,-0.1069,-0.1126,-0.1281,-0.1588,-0.204,-0.2391,-0.242,-0.2327,-0.2299,-0.2401,-0.2363,-0.2486,-0.2455,-0.2499,0,0]},{"header":{"parameterUnit":"m.s-1","parameterCategory":2,"la1":30.2992,"la2":30.254,"lo1":-89.0895,"lo2":-89.0443,"dy":0.0025,"dx":0.0025,"nx":19,"ny":19,"refTime":"2026-04-19T09:00:00:Z","depth":"0","parameterNumber":3,"parameterNumberName":"V-component_of_CURRENTS"},"data":[0,0,0,-0.0778,-0.0776,-0.0716,-0.0716,-0.061,-0.0609,0,0,0,0,0,0,0,0,0,0,0,-0.0823,-0.0823,-0.0778,-0.0776,-0.0716,-0.0716,-0.061,-0.0609,0,0,0,0,0,0,0,0,0,0,0,-0.0823,-0.0823,-0.0823,-0.0776,-0.0716,-0.0716,-0.0611,-0.0667,0,0,0,0,0,0,0,0,0,0,-0.0731,-0.0781,-0.0823,-0.0823,-0.0775,-0.0716,-0.0716,-0.067,-0.0663,-0.0624,0,-0.0622,0,-0.0593,-0.06,-0.0599,0,0,0,-0.0792,-0.0787,-0.0752,-0.0823,-0.0775,-0.0716,-0.0748,-0.0667,-0.0659,-0.0615,-0.062,-0.0615,-0.0592,-0.0599,-0.0598,-0.0518,-0.0519,0,0,-0.0795,-0.0825,-0.0758,-0.0748,-0.0766,-0.0749,-0.0746,-0.0663,-0.0667,-0.062,-0.0613,-0.059,-0.0598,-0.0597,-0.0518,-0.0519,0,0,0,-0.0794,-0.0828,-0.0797,-0.0753,-0.0733,-0.0747,-0.0743,-0.0672,-0.0657,-0.0611,-0.0589,-0.0597,-0.0595,-0.0518,-0.0518,-0.0578,0,0,0,-0.0797,-0.0825,-0.0799,-0.0818,-0.0735,-0.0706,-0.0754,-0.0664,-0.0652,-0.0589,-0.0597,-0.0594,-0.0518,-0.0518,-0.0576,-0.0545,0,0,0,-0.0824,-0.0828,-0.082,-0.0819,-0.0781,-0.0707,-0.0689,-0.0661,-0.0637,-0.0599,-0.0594,-0.0518,-0.0518,-0.0575,-0.0544,-0.0552,0,0,0,-0.0858,-0.0845,-0.0821,-0.0847,-0.0781,-0.07,-0.0689,-0.0653,-0.0625,-0.0596,-0.0518,-0.0518,-0.0574,-0.0543,-0.0551,-0.0722,-0.0739,0,0,-0.0854,-0.0846,-0.0873,-0.0849,-0.0782,-0.071,-0.0659,-0.0637,-0.0617,-0.0545,-0.0543,-0.0577,-0.0544,-0.0552,-0.0743,-0.076,0,0,0,-0.0884,-0.0876,-0.0854,-0.0843,-0.0774,-0.0652,-0.0611,-0.0628,-0.0627,-0.0597,-0.0568,-0.0543,-0.0547,-0.0649,-0.0662,-0.0718,-0.052,-0.052,-0.052,-0.0918,-0.0916,-0.0912,-0.0839,-0.0757,-0.0643,-0.0618,-0.0622,-0.0604,-0.0641,-0.0589,-0.062,-0.0732,-0.0743,-0.0799,-0.0613,-0.0613,-0.0614,-0.0614,-0.0926,-0.0935,-0.0929,-0.0897,-0.0782,-0.0704,-0.0605,-0.0621,-0.0642,-0.0636,-0.064,-0.0701,-0.0761,-0.0816,-0.0617,-0.0617,-0.0616,-0.0616,-0.0616,-0.0915,-0.0905,-0.0942,-0.0929,-0.0876,-0.073,-0.0726,-0.0648,-0.065,-0.0669,-0.0755,-0.0756,-0.0804,-0.0671,-0.0671,-0.0671,-0.0671,-0.0671,-0.0671,-0.0879,-0.0901,-0.0946,-0.0924,-0.0965,-0.0892,-0.0775,-0.078,-0.0755,-0.0784,-0.0787,-0.0834,-0.0636,-0.0634,-0.0669,-0.067,-0.067,-0.067,-0.067,-0.0782,-0.0841,-0.0933,-0.1006,-0.1102,-0.115,-0.1013,-0.1023,-0.0988,-0.1031,-0.1037,-0.0869,-0.0851,-0.0842,-0.0844,-0.0931,-0.0931,-0.0931,-0.0931,-0.0761,-0.0773,-0.0994,-0.115,-0.1236,-0.1279,-0.1466,-0.1462,-0.1333,-0.1294,-0.1172,-0.1235,-0.1222,-0.1225,-0.1208,-0.1216,-0.1395,-0.1396,-0.1396,-0.0741,-0.0863,-0.1006,-0.1199,-0.1334,-0.1458,-0.1718,-0.1931,-0.1683,-0.1411,-0.1212,-0.1193,-0.1275,-0.125,-0.1245,-0.1216,-0.1225,0,0]}],[{"header":{"parameterUnit":"m.s-1","parameterCategory":2,"la1":30.2992,"la2":30.254,"lo1":-89.0895,"lo2":-89.0443,"dy":0.0025,"dx":0.0025,"nx":19,"ny":19,"refTime":"2026-04-19T09:00:00:Z","depth":"2","parameterNumber":2,"parameterNumberName":"U-component_of_CURRENTS"},"data":[0,0,0,-0.1729,-0.173,-0.1789,-0.1789,-0.1776,-0.1776,0,0,0,0,0,0,0,0,0,0,0,-0.1695,-0.1696,-0.1728,-0.1731,-0.1789,-0.1789,-0.1776,-0.1776,0,0,0,0,0,0,0,0,0,0,0,-0.1695,-0.1696,-0.1696,-0.1731,-0.1789,-0.1789,-0.1776,-0.175,0,0,0,0,0,0,0,0,0,0,-0.1702,-0.1697,-0.1695,-0.1696,-0.1731,-0.1789,-0.1789,-0.1749,-0.1751,-0.173,0,-0.1746,0,-0.1773,-0.1775,-0.1775,0,0,0,-0.1713,-0.1696,-0.171,-0.1696,-0.1732,-0.1789,-0.1757,-0.1751,-0.1753,-0.1733,-0.1747,-0.1747,-0.1773,-0.1775,-0.1775,-0.1729,-0.1728,0,0,-0.1709,-0.1704,-0.1709,-0.1712,-0.1755,-0.1756,-0.176,-0.1753,-0.1757,-0.1747,-0.1748,-0.1773,-0.1775,-0.1775,-0.1729,-0.1729,0,0,0,-0.1712,-0.1701,-0.1717,-0.1711,-0.1736,-0.1758,-0.1762,-0.1757,-0.1763,-0.1748,-0.1773,-0.1775,-0.1774,-0.173,-0.1729,-0.1667,0,0,0,-0.1709,-0.1705,-0.1716,-0.1713,-0.1737,-0.1763,-0.1766,-0.1763,-0.1764,-0.1773,-0.1775,-0.1774,-0.173,-0.1729,-0.1669,-0.1661,0,0,0,-0.1691,-0.1703,-0.1712,-0.1712,-0.1748,-0.1764,-0.1769,-0.1764,-0.1779,-0.1775,-0.1774,-0.173,-0.1729,-0.1672,-0.1664,-0.1673,0,0,0,-0.1679,-0.1698,-0.1712,-0.1759,-0.1747,-0.1735,-0.1769,-0.1782,-0.1779,-0.1774,-0.173,-0.1729,-0.1672,-0.1667,-0.1675,-0.1777,-0.1778,0,0,-0.1694,-0.17,-0.1734,-0.1748,-0.1724,-0.1726,-0.1679,-0.1713,-0.1754,-0.1724,-0.1724,-0.1669,-0.1665,-0.1674,-0.1726,-0.1729,0,0,0,-0.1735,-0.1709,-0.1721,-0.1719,-0.1732,-0.1662,-0.1664,-0.1681,-0.1692,-0.1754,-0.1668,-0.1668,-0.1676,-0.174,-0.1742,-0.1725,-0.1725,-0.1725,-0.1725,-0.1684,-0.1697,-0.1682,-0.1644,-0.1626,-0.1605,-0.1594,-0.1602,-0.1625,-0.1635,-0.1616,-0.1581,-0.1646,-0.165,-0.1606,-0.1605,-0.1605,-0.1605,-0.1605,-0.1607,-0.1568,-0.1583,-0.1552,-0.152,-0.1459,-0.147,-0.1505,-0.1527,-0.1555,-0.1565,-0.167,-0.1648,-0.16,-0.1601,-0.1601,-0.1602,-0.1602,-0.1603,-0.1479,-0.1453,-0.1475,-0.1426,-0.1399,-0.1382,-0.1398,-0.1424,-0.1486,-0.1501,-0.1607,-0.161,-0.1567,-0.1509,-0.1509,-0.1509,-0.1509,-0.1509,-0.1509,-0.1332,-0.1343,-0.131,-0.1285,-0.1296,-0.1295,-0.1356,-0.1415,-0.1511,-0.1567,-0.1568,-0.155,-0.1553,-0.1563,-0.1508,-0.1508,-0.1508,-0.1508,-0.1508,-0.1122,-0.1163,-0.1132,-0.1148,-0.1187,-0.1182,-0.1306,-0.1496,-0.1569,-0.1654,-0.162,-0.1618,-0.1661,-0.1661,-0.1675,-0.1653,-0.1653,-0.1653,-0.1653,-0.0998,-0.1006,-0.1038,-0.1087,-0.1116,-0.1149,-0.126,-0.1366,-0.1516,-0.1533,-0.1536,-0.1547,-0.1547,-0.1583,-0.1585,-0.1597,-0.1553,-0.1552,-0.1552,-0.089,-0.0956,-0.097,-0.1059,-0.1118,-0.111,-0.1145,-0.1213,-0.1401,-0.1533,-0.1366,-0.1676,-0.1707,-0.1699,-0.1771,-0.1768,-0.1794,0,0]},{"header":{"parameterUnit":"m.s-1","parameterCategory":2,"la1":30.2992,"la2":30.254,"lo1":-89.0895,"lo2":-89.0443,"dy":0.0025,"dx":0.0025,"nx":19,"ny":19,"refTime":"2026-04-19T09:00:00:Z","depth":"2","parameterNumber":3,"parameterNumberName":"V-component_of_CURRENTS"},"data":[0,0,0,-0.0738,-0.0736,-0.0676,-0.0676,-0.0569,-0.0567,0,0,0,0,0,0,0,0,0,0,0,-0.0782,-0.0782,-0.0738,-0.0736,-0.0676,-0.0676,-0.0569,-0.0567,0,0,0,0,0,0,0,0,0,0,0,-0.0782,-0.0782,-0.0782,-0.0736,-0.0676,-0.0676,-0.0569,-0.0626,0,0,0,0,0,0,0,0,0,0,-0.0689,-0.0738,-0.0782,-0.0782,-0.0735,-0.0676,-0.0676,-0.0629,-0.0622,-0.0582,0,-0.058,0,-0.0552,-0.0558,-0.0558,0,0,0,-0.0751,-0.0744,-0.0711,-0.0782,-0.0734,-0.0676,-0.0708,-0.0625,-0.0618,-0.0573,-0.0578,-0.0573,-0.055,-0.0557,-0.0557,-0.0476,-0.0476,0,0,-0.0754,-0.0783,-0.0717,-0.0707,-0.0726,-0.0709,-0.0705,-0.0621,-0.0625,-0.0578,-0.057,-0.0548,-0.0556,-0.0555,-0.0476,-0.0476,0,0,0,-0.0754,-0.0786,-0.0757,-0.0712,-0.0692,-0.0707,-0.0703,-0.063,-0.0616,-0.0569,-0.0547,-0.0556,-0.0554,-0.0476,-0.0476,-0.0535,0,0,0,-0.0756,-0.0783,-0.0758,-0.0776,-0.0694,-0.0665,-0.0714,-0.0623,-0.0611,-0.0547,-0.0555,-0.0552,-0.0476,-0.0476,-0.0533,-0.0501,0,0,0,-0.0784,-0.0786,-0.0779,-0.0778,-0.074,-0.0666,-0.0648,-0.062,-0.0596,-0.0558,-0.0552,-0.0475,-0.0476,-0.0532,-0.05,-0.0509,0,0,0,-0.0816,-0.0802,-0.078,-0.0806,-0.0741,-0.0657,-0.0649,-0.0612,-0.0584,-0.0555,-0.0476,-0.0476,-0.0531,-0.0499,-0.0508,-0.061,-0.0622,0,0,-0.0809,-0.0803,-0.083,-0.0808,-0.0741,-0.0666,-0.0612,-0.0593,-0.0576,-0.0503,-0.0501,-0.0534,-0.05,-0.0509,-0.0632,-0.0644,0,0,0,-0.0839,-0.0831,-0.0809,-0.08,-0.073,-0.0605,-0.0563,-0.0582,-0.0585,-0.0555,-0.0525,-0.05,-0.0505,-0.0565,-0.0574,-0.0478,-0.0478,-0.0478,-0.0478,-0.0871,-0.087,-0.0867,-0.0794,-0.071,-0.0595,-0.0569,-0.0575,-0.0557,-0.0599,-0.0545,-0.0577,-0.0645,-0.0652,-0.057,-0.0571,-0.0571,-0.0571,-0.0571,-0.088,-0.0888,-0.0886,-0.0855,-0.0738,-0.0656,-0.0556,-0.0573,-0.0596,-0.0592,-0.0597,-0.0619,-0.0665,-0.0576,-0.0575,-0.0574,-0.0574,-0.0573,-0.0573,-0.0868,-0.0856,-0.0899,-0.0889,-0.0835,-0.0685,-0.0681,-0.0601,-0.0605,-0.0625,-0.0666,-0.0666,-0.0589,-0.0627,-0.0627,-0.0627,-0.0627,-0.0627,-0.0627,-0.0827,-0.0854,-0.0901,-0.0883,-0.0927,-0.0852,-0.0732,-0.0736,-0.0681,-0.0688,-0.0689,-0.0595,-0.0593,-0.059,-0.0626,-0.0626,-0.0626,-0.0626,-0.0627,-0.0725,-0.0784,-0.0884,-0.0962,-0.1063,-0.0964,-0.0938,-0.0921,-0.0907,-0.093,-0.0745,-0.0743,-0.0718,-0.0712,-0.0711,-0.0775,-0.0775,-0.0775,-0.0775,-0.0698,-0.071,-0.0943,-0.1107,-0.1196,-0.1048,-0.1025,-0.0835,-0.0723,-0.058,-0.0586,-0.0599,-0.0601,-0.0566,-0.0564,-0.0558,-0.0581,-0.058,-0.0579,-0.0677,-0.0804,-0.0954,-0.1154,-0.1295,-0.1079,-0.0872,-0.0632,-0.0506,-0.0552,-0.0353,-0.0801,-0.0845,-0.0838,-0.0803,-0.0792,-0.079,0,0]}],[{"header":{"parameterUnit":"m.s-1","parameterCategory":2,"la1":30.2992,"la2":30.254,"lo1":-89.0895,"lo2":-89.0443,"dy":0.0025,"dx":0.0025,"nx":19,"ny":19,"refTime":"2026-04-19T09:00:00:Z","depth":"4","parameterNumber":2,"parameterNumberName":"U-component_of_CURRENTS"},"data":[0,0,0,-0.085,-0.0852,-0.0965,-0.0965,-0.1061,-0.1062,0,0,0,0,0,0,0,0,0,0,0,-0.0848,-0.085,-0.085,-0.0853,-0.0965,-0.0965,-0.1061,-0.1062,0,0,0,0,0,0,0,0,0,0,0,-0.0848,-0.085,-0.0851,-0.0853,-0.0965,-0.0965,-0.1061,-0.0991,0,0,0,0,0,0,0,0,0,0,-0.0889,-0.0851,-0.0849,-0.0852,-0.0854,-0.0964,-0.0965,-0.0988,-0.0995,-0.0994,0,-0.1039,0,-0.1032,-0.1066,-0.1067,0,0,0,-0.0863,-0.0845,-0.0907,-0.0852,-0.0855,-0.0964,-0.0917,-0.0992,-0.1,-0.1003,-0.104,-0.1043,-0.1033,-0.1067,-0.1067,-0.1106,-0.1106,0,0,-0.0857,-0.083,-0.0902,-0.0913,-0.0919,-0.0913,-0.092,-0.0998,-0.1,-0.1041,-0.1045,-0.1035,-0.1067,-0.1068,-0.1106,-0.1106,0,0,0,-0.0832,-0.0826,-0.0887,-0.091,-0.0923,-0.0916,-0.0925,-0.0997,-0.1029,-0.1046,-0.1036,-0.1068,-0.1068,-0.1106,-0.1106,-0.105,0,0,0,-0.0829,-0.0811,-0.0885,-0.0864,-0.0922,-0.0955,-0.0922,-0.1025,-0.1032,-0.1035,-0.1068,-0.1069,-0.1106,-0.1106,-0.1051,-0.1081,0,0,0,-0.0837,-0.0809,-0.0842,-0.0864,-0.0907,-0.0955,-0.0989,-0.1027,-0.1024,-0.1067,-0.1069,-0.1107,-0.1106,-0.1053,-0.1082,-0.1121,0,0,0,-0.0778,-0.0839,-0.0842,-0.0864,-0.0906,-0.0984,-0.0989,-0.1053,-0.1097,-0.1068,-0.1106,-0.1106,-0.1053,-0.1083,-0.1121,-0.0988,0,0,0,-0.0822,-0.0843,-0.0846,-0.0851,-0.0895,-0.0967,-0.0975,-0.1043,-0.1084,-0.108,-0.1081,-0.1051,-0.1082,-0.1121,-0.098,0,0,0,0,-0.0834,-0.0842,-0.0862,-0.0863,-0.0929,-0.0984,-0.1037,-0.1041,-0.1067,-0.1105,-0.1064,-0.1087,-0.1113,-0.1034,-0.1106,-0.1106,-0.1106,-0.1106,-0.1106,-0.0792,-0.08,-0.0798,-0.0844,-0.0908,-0.0975,-0.1005,-0.1017,-0.1051,-0.1056,-0.1047,-0.1055,-0.0966,-0.1028,-0.1028,-0.1027,-0.1027,-0.1027,-0.1027,-0.0756,-0.0712,-0.0729,-0.0763,-0.0829,-0.087,-0.0945,-0.0973,-0.1,-0.1014,-0.104,-0.0987,-0.1022,-0.1023,-0.1023,-0.1024,-0.1025,-0.1025,-0.1025,-0.0673,-0.066,-0.0681,-0.0681,-0.0692,-0.0795,-0.083,-0.0928,-0.0996,-0.101,-0.0988,-0.1058,-0.1058,-0.1043,-0.1043,-0.1043,-0.1044,-0.1044,-0.1044,-0.0572,-0.0589,-0.0577,-0.0596,-0.0576,-0.0637,-0.0795,-0.0875,-0.1005,-0.0966,-0.1044,-0.1063,-0.1063,-0.1063,-0.1048,-0.1047,-0.1047,-0.1046,-0.1046,-0.0472,-0.0503,-0.0446,-0.0437,-0.0393,-0.0432,-0.0615,-0.0824,-0.0885,-0.0923,-0.0934,-0.0939,-0.0972,-0.0975,-0.0973,-0.0932,-0.093,-0.0928,0,-0.0363,-0.0399,-0.0311,-0.0277,-0.0237,-0.0309,-0.0407,-0.0556,-0.0747,-0.0711,-0.084,-0.0843,-0.0849,-0.0875,-0.0876,-0.0865,0,0,0,-0.0252,-0.0236,-0.019,-0.0219,-0.0174,-0.0274,-0.0426,-0.0488,-0.0697,-0.0796,-0.0886,-0.0897,-0.0942,-0.106,-0.1125,-0.1124,-0.1129,0,0]},{"header":{"parameterUnit":"m.s-1","parameterCategory":2,"la1":30.2992,"la2":30.254,"lo1":-89.0895,"lo2":-89.0443,"dy":0.0025,"dx":0.0025,"nx":19,"ny":19,"refTime":"2026-04-19T09:00:00:Z","depth":"4","parameterNumber":3,"parameterNumberName":"V-component_of_CURRENTS"},"data":[0,0,0,0.0436,0.0438,0.0446,0.0446,0.051,0.0512,0,0,0,0,0,0,0,0,0,0,0,0.0375,0.0375,0.0436,0.0438,0.0446,0.0446,0.051,0.0512,0,0,0,0,0,0,0,0,0,0,0,0.0375,0.0375,0.0375,0.0439,0.0447,0.0446,0.051,0.0477,0,0,0,0,0,0,0,0,0,0,0.0457,0.0445,0.0375,0.0375,0.0439,0.0447,0.0446,0.0475,0.0479,0.0539,0,0.0532,0,0.0577,0.0522,0.0523,0,0,0,0.0385,0.0441,0.0432,0.0375,0.044,0.0447,0.0428,0.0476,0.0482,0.0546,0.0533,0.0537,0.0578,0.0523,0.0524,0.0625,0.0625,0,0,0.0384,0.0393,0.0428,0.0435,0.0435,0.0428,0.0429,0.0479,0.0491,0.0534,0.054,0.0579,0.0524,0.0526,0.0625,0.0625,0,0,0,0.0419,0.0393,0.038,0.0431,0.0458,0.0429,0.043,0.0487,0.0479,0.0541,0.058,0.0525,0.0527,0.0625,0.0625,0.0585,0,0,0,0.0416,0.0418,0.0379,0.0387,0.0457,0.048,0.0438,0.0472,0.0482,0.0579,0.0525,0.0529,0.0625,0.0625,0.0587,0.0505,0,0,0,0.0376,0.0417,0.0409,0.0387,0.042,0.0479,0.0471,0.0473,0.051,0.0523,0.0529,0.0625,0.0625,0.0588,0.0509,0.0455,0,0,0,0.0394,0.0359,0.0409,0.0441,0.0421,0.0395,0.047,0.046,0.0458,0.0526,0.0625,0.0625,0.0588,0.0512,0.0458,0.0481,0,0,0,0.0349,0.0355,0.0386,0.0433,0.0441,0.039,0.0411,0.0449,0.0486,0.0604,0.0605,0.0586,0.051,0.0456,0.0471,0,0,0,0,0.0377,0.0385,0.0394,0.0451,0.0436,0.039,0.0418,0.0446,0.0504,0.0501,0.0594,0.0545,0.0513,0.0537,0.0624,0.0624,0.0624,0.0624,0.0624,0.037,0.0414,0.0448,0.0459,0.0423,0.0414,0.0389,0.0437,0.0491,0.0507,0.0522,0.0456,0.0484,0.0566,0.0566,0.0566,0.0566,0.0566,0.0566,0.0362,0.042,0.047,0.0467,0.045,0.0435,0.0401,0.0416,0.0436,0.0489,0.0462,0.0505,0.0562,0.0563,0.0563,0.0564,0.0564,0.0564,0.0564,0.0376,0.0395,0.0406,0.0437,0.0491,0.0447,0.0397,0.0347,0.0346,0.0331,0.0342,0.0399,0.039,0.0318,0.0317,0.0317,0.0316,0.0316,0.0315,0.0368,0.0384,0.0411,0.0435,0.0496,0.0453,0.036,0.0298,0.0234,0.0242,0.0283,0.0371,0.0379,0.0375,0.0306,0.0308,0.0309,0.031,0.0311,0.0388,0.0365,0.0431,0.0463,0.0549,0.0537,0.0393,0.0212,0.016,0.0152,0.0215,0.0223,0.0219,0.023,0.0221,0.0104,0.0104,0.0104,0,0.0426,0.0411,0.0526,0.0577,0.0581,0.0568,0.0403,0.0318,0.0237,0.0218,0.0268,0.0349,0.0351,0.0364,0.0372,0.0371,0,0,0,0.0495,0.0538,0.0621,0.0621,0.0629,0.0474,0.0366,0.0301,0.0219,0.0166,0.0102,0.0103,0.0352,0.028,0.029,0.03,0.0292,0,0]}]]